FW3227 Weather Reports


Display with metric or nautical units.
time (UTC)temp
F
wind
direction
speed
MPH
gust
MPH
rain 1hr
in
rain 24hr
in
rain mn
in
humidity
%
barometer
mb
20260905060514 70 207 0.0 0.0 0.00 0.00 0.00 52 1003.3
20260905060013 70 207 0.0 0.0 0.00 0.00 0.00 52 1003.2
20260905055513 70 207 0.0 1.0 0.00 0.00 0.00 52 1003.2
20260905055017 70 208 0.0 1.0 0.00 0.00 0.00 51 1003.3
20260905054518 71 207 0.0 0.0 0.00 0.00 0.00 50 1003.2
20260905054015 71 202 0.0 0.0 0.00 0.00 0.00 50 1003.2
20260905053512 71 225 0.0 0.0 0.00 0.00 0.00 49 1003.1
20260905053012 72 225 0.0 0.0 0.00 0.00 0.00 48 1003.2
20260905052513 72 225 0.0 1.0 0.00 0.00 0.00 48 1003.1
20260905052011 72 227 0.0 1.0 0.00 0.00 0.00 47 1003.1
20260905051521 73 218 0.0 1.0 0.00 0.00 0.00 47 1003.3
20260905051011 73 218 0.0 1.0 0.00 0.00 0.00 46 1003.2
20260905050511 74 198 0.0 1.0 0.00 0.00 0.00 46 1003.2
20260905050012 74 184 0.0 5.0 0.00 0.00 0.00 45 1003.2
20260905045511 74 165 0.0 5.0 0.00 0.00 0.00 45 1003.1
20260905045012 74 154 0.0 13.0 0.00 0.00 0.00 44 1003.0
20260905044511 75 177 3.0 13.0 0.00 0.00 0.00 44 1003.0
20260905044009 75 154 0.0 15.0 0.00 0.00 0.00 43 1003.0
20260905043510 75 142 0.0 15.0 0.00 0.00 0.00 43 1003.0
20260905043010 75 189 1.0 13.0 0.00 0.00 0.00 42 1003.0
20260905042509 75 157 6.0 15.0 0.00 0.00 0.00 42 1003.1
20260905042009 75 144 5.0 15.0 0.00 0.00 0.00 42 1003.1
20260905041509 75 124 2.0 15.0 0.00 0.00 0.00 41 1003.2
20260905041008 75 160 2.0 16.0 0.00 0.00 0.00 41 1003.0
20260905040508 75 146 4.0 15.0 0.00 0.00 0.00 40 1003.1
20260905040015 75 148 4.0 15.0 0.00 0.00 0.00 41 1003.0
20260905035510 75 156 2.0 9.0 0.00 0.00 0.00 40 1003.1
20260905035008 75 169 0.0 10.0 0.00 0.00 0.00 40 1003.0
20260905034522 75 159 1.0 10.0 0.00 0.00 0.00 40 1003.0
20260905034010 75 154 2.0 14.0 0.00 0.00 0.00 40 1003.0
20260905033506 75 158 4.0 14.0 0.00 0.00 0.00 40 1002.9
20260905033007 76 169 1.0 13.0 0.00 0.00 0.00 39 1002.9
20260905032608 76 137 5.0 14.0 0.00 0.00 0.00 39 1002.9
20260905032006 76 136 5.0 17.0 0.00 0.00 0.00 38 1002.9
20260905031506 76 150 6.0 14.0 0.00 0.00 0.00 37 1002.9
20260905031006 76 147 4.0 14.0 0.00 0.00 0.00 37 1002.9
20260905030505 76 166 3.0 14.0 0.00 0.00 0.00 37 1002.8
20260905030006 76 154 2.0 17.0 0.00 0.00 0.00 36 1002.7
20260905025505 76 150 6.0 17.0 0.00 0.00 0.00 36 1002.7
20260905025005 77 166 5.0 15.0 0.00 0.00 0.00 35 1002.6
20260905024507 77 170 5.0 16.0 0.00 0.00 0.00 35 1002.6
20260905024004 77 148 5.0 19.0 0.00 0.00 0.00 34 1002.6
20260905023504 77 141 5.0 20.0 0.00 0.00 0.00 33 1002.5
20260905023005 77 151 9.0 24.0 0.00 0.00 0.00 33 1002.4
20260905022508 77 158 8.0 24.0 0.00 0.00 0.00 33 1002.4
20260905022003 77 146 2.0 10.0 0.00 0.00 0.00 34 1002.4
20260905021502 77 154 0.0 15.0 0.00 0.00 0.00 33 1002.4
20260905021002 78 165 1.0 17.0 0.00 0.00 0.00 33 1002.2
20260905020502 78 151 4.0 23.0 0.00 0.00 0.00 33 1002.2
20260905020003 78 140 12.0 23.0 0.00 0.00 0.00 33 1002.1
20260905015502 78 162 7.0 28.0 0.00 0.00 0.00 33 1002.0
20260905015004 78 146 12.0 28.0 0.00 0.00 0.00 32 1002.0
20260905014502 79 146 7.0 22.0 0.00 0.00 0.00 32 1002.0
20260905014101 79 148 11.0 22.0 0.00 0.00 0.00 31 1002.0
20260905013503 79 159 8.0 20.0 0.00 0.00 0.00 30 1002.0
20260905013101 79 164 6.0 18.0 0.00 0.00 0.00 31 1001.9
20260905013000 79 135 6.0 22.0 0.00 0.00 0.00 30 1001.9
20260905012602 80 129 2.0 22.0 0.00 0.00 0.00 31 1001.7
20260905012501 80 143 4.0 22.0 0.00 0.00 0.00 31 1001.8
20260905012105 81 156 9.0 21.0 0.00 0.00 0.00 30 1001.8
20260905011606 82 136 3.0 16.0 0.00 0.00 0.00 29 1002.0
20260905011100 82 150 9.0 16.0 0.00 0.00 0.00 28 1001.5
20260905010603 82 134 6.0 18.0 0.00 0.00 0.00 28 1001.6
20260905010100 82 140 6.0 18.0 0.00 0.00 0.00 28 1001.5
20260905005700 82 148 1.0 9.0 0.00 0.00 0.00 28 1001.5
20260905005100 83 129 1.0 13.0 0.00 0.00 0.00 27 1001.5
20260905004604 83 137 3.0 14.0 0.00 0.00 0.00 26 1001.4
20260905004059 84 154 4.0 15.0 0.00 0.00 0.00 26 1001.4
20260905003559 84 148 6.0 21.0 0.00 0.00 0.00 26 1001.5
20260905003100 85 147 5.0 16.0 0.00 0.00 0.00 26 1001.4
20260905002558 85 142 7.0 16.0 0.00 0.00 0.00 26 1001.5
20260905002058 85 143 7.0 20.0 0.00 0.00 0.00 25 1001.4
20260905001607 85 148 7.0 20.0 0.00 0.00 0.00 25 1001.4
20260905001057 85 145 6.0 17.0 0.00 0.00 0.00 25 1001.3
20260905000558 86 156 9.0 21.0 0.00 0.00 0.00 24 1001.3
20260905000104 86 148 8.0 21.0 0.00 0.00 0.00 25 1001.3
20260904235558 86 160 4.0 20.0 0.00 0.00 0.00 24 1001.1
20260904235059 86 150 7.0 20.0 0.00 0.00 0.00 24 1001.1
20260904234606 86 158 0.0 14.0 0.00 0.00 0.00 26 1001.1
20260904234056 86 142 4.0 14.0 0.00 0.00 0.00 24 1001.1
20260904233556 86 142 3.0 18.0 0.00 0.00 0.00 24 1001.1
20260904233057 86 135 4.0 18.0 0.00 0.00 0.00 25 1001.1
20260904232556 86 133 4.0 13.0 0.00 0.00 0.00 25 1001.2
20260904232056 86 142 2.0 16.0 0.00 0.00 0.00 25 1001.1
20260904231555 86 134 2.0 16.0 0.00 0.00 0.00 25 1001.2
20260904231055 86 136 2.0 16.0 0.00 0.00 0.00 25 1001.2
20260904230557 86 129 5.0 16.0 0.00 0.00 0.00 25 1001.2
20260904230055 86 138 4.0 16.0 0.00 0.00 0.00 25 1001.2
20260904225657 86 135 8.0 17.0 0.00 0.00 0.00 24 1001.2
20260904225054 86 139 5.0 17.0 0.00 0.00 0.00 25 1001.2
20260904224554 86 135 7.0 19.0 0.00 0.00 0.00 25 1001.3
20260904224054 85 133 8.0 19.0 0.00 0.00 0.00 25 1001.2
20260904223553 85 141 4.0 15.0 0.00 0.00 0.00 25 1001.3
20260904223056 86 139 4.0 15.0 0.00 0.00 0.00 25 1001.3
20260904222554 86 141 4.0 18.0 0.00 0.00 0.00 25 1001.4
20260904222052 87 129 4.0 18.0 0.00 0.00 0.00 24 1001.4
20260904221555 87 138 3.0 12.0 0.00 0.00 0.00 24 1001.3
20260904221052 87 137 2.0 10.0 0.00 0.00 0.00 25 1001.3
20260904220552 86 143 2.0 12.0 0.00 0.00 0.00 25 1001.4
20260904220106 87 144 3.0 12.0 0.00 0.00 0.00 23 1001.4
20260904215552 87 133 5.0 11.0 0.00 0.00 0.00 23 1001.5
20260904215055 88 124 2.0 13.0 0.00 0.00 0.00 23 1001.5
20260904214552 88 137 1.0 13.0 0.00 0.00 0.00 24 1001.6
20260904214050 88 140 2.0 14.0 0.00 0.00 0.00 24 1001.7
20260904213549 88 140 5.0 14.0 0.00 0.00 0.00 23 1001.7
20260904213050 88 139 5.0 17.0 0.00 0.00 0.00 23 1001.8
20260904212552 87 138 8.0 17.0 0.00 0.00 0.00 23 1001.9
20260904212050 87 143 4.0 12.0 0.00 0.00 0.00 23 1001.9
20260904211555 87 142 2.0 10.0 0.00 0.00 0.00 23 1001.8
20260904211049 88 146 0.0 8.0 0.00 0.00 0.00 23 1002.0
20260904210549 88 147 0.0 11.0 0.00 0.00 0.00 21 1002.0
20260904210057 89 147 5.0 16.0 0.00 0.00 0.00 20 1002.1
20260904205549 89 147 5.0 16.0 0.00 0.00 0.00 21 1002.1
20260904205048 89 157 2.0 10.0 0.00 0.00 0.00 22 1002.1
20260904204547 89 159 0.0 12.0 0.00 0.00 0.00 20 1002.2
20260904204047 89 160 1.0 12.0 0.00 0.00 0.00 20 1002.3
20260904203547 90 168 2.0 9.0 0.00 0.00 0.00 20 1002.4
20260904203046 90 218 0.0 3.0 0.00 0.00 0.00 19 1002.5
20260904202545 90 217 0.0 0.0 0.00 0.00 0.00 21 1002.5
20260904202045 90 272 0.0 4.0 0.00 0.00 0.00 22 1002.5
20260904201548 90 314 0.0 4.0 0.00 0.00 0.00 20 1002.5
20260904201044 90 192 0.0 2.0 0.00 0.00 0.00 19 1002.5
20260904200545 90 147 0.0 4.0 0.00 0.00 0.00 20 1002.6
20260904195543 90 148 0.0 9.0 0.00 0.00 0.00 20 1002.8
20260904195043 90 148 4.0 9.0 0.00 0.00 0.00 19 1002.9
20260904194622 90 148 2.0 8.0 0.00 0.00 0.00 18 1002.9
20260904194041 90 147 0.0 11.0 0.00 0.00 0.00 20 1002.9
20260904193542 89 147 0.0 12.0 0.00 0.00 0.00 22 1003.0
20260904193044 89 148 3.0 14.0 0.00 0.00 0.00 20 1003.0
20260904192540 90 143 4.0 11.0 0.00 0.00 0.00 19 1003.0
20260904192041 90 225 0.0 0.0 0.00 0.00 0.00 19 1003.1
20260904191540 91 227 0.0 0.0 0.00 0.00 0.00 19 1003.2
20260904191042 90 228 0.0 0.0 0.00 0.00 0.00 19 1003.3
20260904190538 90 228 0.0 0.0 0.00 0.00 0.00 20 1003.3
20260904190046 90 228 0.0 0.0 0.00 0.00 0.00 18 1003.4
20260904185536 90 228 0.0 0.0 0.00 0.00 0.00 20 1003.4
20260904185037 90 228 0.0 0.0 0.00 0.00 0.00 18 1003.4
20260904184535 90 228 0.0 0.0 0.00 0.00 0.00 19 1003.5
20260904184035 90 228 0.0 0.0 0.00 0.00 0.00 19 1003.5
20260904183535 90 228 0.0 0.0 0.00 0.00 0.00 22 1003.7
20260904183034 89 230 0.0 11.0 0.00 0.00 0.00 21 1003.7
20260904182536 89 230 0.0 11.0 0.00 0.00 0.00 20 1003.8
20260904182032 89 142 0.0 0.0 0.00 0.00 0.00 19 1003.8
20260904181536 89 142 0.0 0.0 0.00 0.00 0.00 21 1003.9
20260904181031 89 142 0.0 0.0 0.00 0.00 0.00 21 1003.9
20260904180530 89 142 0.0 0.0 0.00 0.00 0.00 19 1004.1
20260904180030 88 142 0.0 0.0 0.00 0.00 0.00 19 1004.1
20260904175530 88 142 0.0 0.0 0.00 0.00 0.00 20 1004.1
20260904175028 88 142 0.0 0.0 0.00 0.00 0.00 22 1004.2
20260904174526 88 142 0.0 0.0 0.00 0.00 0.00 19 1004.2
20260904174024 87 142 0.0 0.0 0.00 0.00 0.00 21 1004.2
20260904173523 87 141 0.0 0.0 0.00 0.00 0.00 19 1004.2
20260904173030 87 5 0.0 0.0 0.00 0.00 0.00 22 1004.3
20260904172520 86 5 0.0 0.0 0.00 0.00 0.00 21 1004.2
20260904172019 86 5 0.0 0.0 0.00 0.00 0.00 22 1004.3
20260904171525 86 5 0.0 0.0 0.00 0.00 0.00 20 1004.3
20260904171017 86 356 0.0 0.0 0.00 0.00 0.00 20 1004.2
20260904170518 86 356 0.0 0.0 0.00 0.00 0.00 19 1004.3
20260904170016 86 356 0.0 0.0 0.00 0.00 0.00 22 1004.3
20260904165515 85 356 0.0 0.0 0.00 0.00 0.00 22 1004.3
20260904165014 85 360 0.0 0.0 0.00 0.00 0.00 21 1004.3
20260904164513 85 360 0.0 0.0 0.00 0.00 0.00 21 1004.3
20260904164014 84 360 0.0 0.0 0.00 0.00 0.00 23 1004.3
20260904163509 84 360 0.0 0.0 0.00 0.00 0.00 22 1004.4
20260904163010 84 360 0.0 0.0 0.00 0.00 0.00 24 1004.3
20260904162508 83 1 0.0 0.0 0.00 0.00 0.00 26 1004.4
20260904162009 83 1 0.0 0.0 0.00 0.00 0.00 29 1004.4
20260904161504 82 3 0.0 0.0 0.00 0.00 0.00 25 1004.4
20260904161003 82 3 0.0 0.0 0.00 0.00 0.00 26 1004.5
20260904160502 81 3 0.0 0.0 0.00 0.00 0.00 26 1004.5
20260904160103 81 3 0.0 0.0 0.00 0.00 0.00 27 1004.5
20260904155558 80 3 0.0 0.0 0.00 0.00 0.00 26 1004.6
20260904155058 80 3 0.0 0.0 0.00 0.00 0.00 29 1004.6
20260904154611 79 3 0.0 0.0 0.00 0.00 0.00 29 1004.6
20260904154056 79 3 0.0 0.0 0.00 0.00 0.00 30 1004.5
20260904153553 78 3 0.0 0.0 0.00 0.00 0.00 31 1004.6
20260904153053 78 3 0.0 0.0 0.00 0.00 0.00 32 1004.6
20260904152550 78 3 0.0 0.0 0.00 0.00 0.00 32 1004.6
20260904152048 77 3 0.0 0.0 0.00 0.00 0.00 30 1004.5
20260904151548 77 3 0.0 0.0 0.00 0.00 0.00 30 1004.5
20260904151045 76 3 0.0 0.0 0.00 0.00 0.00 34 1004.5
20260904150548 75 3 0.0 0.0 0.00 0.00 0.00 34 1004.5
20260904150042 75 3 0.0 0.0 0.00 0.00 0.00 34 1004.5
20260904145541 74 3 0.0 0.0 0.00 0.00 0.00 34 1004.5
20260904145040 74 3 0.0 0.0 0.00 0.00 0.00 37 1004.5
20260904144539 73 4 0.0 0.0 0.00 0.00 0.00 37 1004.5
20260904144040 72 4 0.0 0.0 0.00 0.00 0.00 42 1004.5
20260904143535 71 4 0.0 0.0 0.00 0.00 0.00 43 1004.6
20260904143034 70 4 0.0 0.0 0.00 0.00 0.00 46 1004.6
20260904142538 70 48 0.0 0.0 0.00 0.00 0.00 51 1004.5
20260904142030 69 48 0.0 0.0 0.00 0.00 0.00 48 1004.5
20260904141540 68 48 0.0 0.0 0.00 0.00 0.00 49 1004.5
20260904141031 67 48 0.0 0.0 0.00 0.00 0.00 50 1004.4
20260904140526 66 48 0.0 0.0 0.00 0.00 0.00 50 1004.4
20260904140025 65 48 0.0 0.0 0.00 0.00 0.00 54 1004.5
20260904135524 63 48 0.0 0.0 0.00 0.00 0.00 57 1004.5
20260904135025 62 48 0.0 0.0 0.00 0.00 0.00 59 1004.5
20260904134521 60 48 0.0 0.0 0.00 0.00 0.00 61 1004.6
20260904134019 58 48 0.0 0.0 0.00 0.00 0.00 65 1004.5
20260904133517 57 48 0.0 0.0 0.00 0.00 0.00 66 1004.4
20260904133020 56 48 0.0 0.0 0.00 0.00 0.00 69 1004.4
20260904132515 55 48 0.0 0.0 0.00 0.00 0.00 68 1004.3
20260904132014 54 49 0.0 0.0 0.00 0.00 0.00 71 1004.1
20260904131513 53 49 0.0 0.0 0.00 0.00 0.00 72 1004.0
20260904131011 52 202 0.0 0.0 0.00 0.00 0.00 72 1004.0
20260904130509 52 202 0.0 0.0 0.00 0.00 0.00 70 1003.9
20260904130008 51 202 0.0 0.0 0.00 0.00 0.00 70 1003.9
20260904125507 51 202 0.0 0.0 0.00 0.00 0.00 71 1003.8
20260904125005 51 202 0.0 0.0 0.00 0.00 0.00 71 1003.8
20260904124503 51 202 0.0 0.0 0.00 0.00 0.00 70 1003.7
20260904124002 51 202 0.0 0.0 0.00 0.00 0.00 71 1003.7
20260904123503 51 202 0.0 0.0 0.00 0.00 0.00 71 1003.7
20260904123118 51 202 0.0 0.0 0.00 0.00 0.00 71 1003.7
20260904122600 52 202 0.0 0.0 0.00 0.00 0.00 71 1003.6
20260904122503 51 202 0.0 0.0 0.00 0.00 0.00 71 1003.6
20260904122101 52 202 0.0 0.0 0.00 0.00 0.00 71 1003.6
20260904121600 52 202 0.0 0.0 0.00 0.00 0.00 71 1003.5
20260904121058 52 202 0.0 0.0 0.00 0.00 0.00 71 1003.4
20260904120558 52 202 0.0 0.0 0.00 0.00 0.00 71 1003.4
20260904120059 52 202 0.0 0.0 0.00 0.00 0.00 71 1003.3
20260904115557 52 202 0.0 0.0 0.00 0.00 0.00 72 1003.3
20260904115056 52 202 0.0 0.0 0.00 0.00 0.00 72 1003.1
20260904114556 52 202 0.0 0.0 0.00 0.00 0.00 72 1003.0
20260904114055 52 202 0.0 0.0 0.00 0.00 0.00 72 1003.0
20260904113554 52 202 0.0 0.0 0.00 0.00 0.00 73 1003.0
20260904113054 52 202 0.0 0.0 0.00 0.00 0.00 73 1002.7
20260904112553 52 202 0.0 0.0 0.00 0.00 0.00 72 1002.6
20260904112056 52 202 0.0 0.0 0.00 0.00 0.00 72 1002.8
20260904111551 52 202 0.0 0.0 0.00 0.00 0.00 72 1002.7
20260904111050 53 202 0.0 0.0 0.00 0.00 0.00 72 1002.7
20260904110552 53 202 0.0 0.0 0.00 0.00 0.00 71 1002.8
20260904110048 53 202 0.0 0.0 0.00 0.00 0.00 70 1002.7
20260904105547 54 202 0.0 0.0 0.00 0.00 0.00 70 1002.7
20260904105046 54 202 0.0 0.0 0.00 0.00 0.00 70 1002.6
20260904104544 54 202 0.0 0.0 0.00 0.00 0.00 69 1002.4
20260904104046 54 202 0.0 0.0 0.00 0.00 0.00 69 1002.3
20260904103542 55 202 0.0 0.0 0.00 0.00 0.00 67 1002.2
20260904103048 55 202 0.0 0.0 0.00 0.00 0.00 66 1002.1
20260904102539 56 202 0.0 0.0 0.00 0.00 0.00 67 1002.0
20260904102037 56 202 0.0 0.0 0.00 0.00 0.00 65 1002.0
20260904101536 56 202 0.0 0.0 0.00 0.00 0.00 66 1001.8
20260904101035 56 202 0.0 0.0 0.00 0.00 0.00 65 1001.7
20260904100535 57 202 0.0 0.0 0.00 0.00 0.00 65 1001.8
20260904100034 57 202 0.0 0.0 0.00 0.00 0.00 64 1001.8
20260904095533 57 202 0.0 0.0 0.00 0.00 0.00 64 1001.8
20260904095031 58 202 0.0 0.0 0.00 0.00 0.00 63 1001.7
20260904094530 58 202 0.0 0.0 0.00 0.00 0.00 63 1001.6
20260904094029 58 202 0.0 0.0 0.00 0.00 0.00 63 1001.5
20260904093529 58 202 0.0 0.0 0.00 0.00 0.00 62 1001.5
20260904093026 59 202 0.0 0.0 0.00 0.00 0.00 61 1001.4
20260904092528 59 202 0.0 0.0 0.00 0.00 0.00 61 1001.4
20260904092024 59 202 0.0 0.0 0.00 0.00 0.00 60 1001.3
20260904091524 60 202 0.0 0.0 0.00 0.00 0.00 59 1001.3
20260904091022 60 202 0.0 0.0 0.00 0.00 0.00 59 1001.2
20260904090521 61 202 0.0 0.0 0.00 0.00 0.00 58 1001.2
20260904090020 61 202 0.0 0.0 0.00 0.00 0.00 57 1001.3
20260904085519 62 202 0.0 0.0 0.00 0.00 0.00 57 1001.2
20260904085018 62 202 0.0 0.0 0.00 0.00 0.00 56 1001.3
20260904084517 62 202 0.0 0.0 0.00 0.00 0.00 55 1001.3
20260904084018 63 202 0.0 0.0 0.00 0.00 0.00 55 1001.2
20260904083513 63 201 0.0 0.0 0.00 0.00 0.00 54 1001.3
20260904083016 63 201 0.0 0.0 0.00 0.00 0.00 54 1001.3
20260904082512 64 202 0.0 0.0 0.00 0.00 0.00 53 1001.4
20260904082015 64 201 0.0 0.0 0.00 0.00 0.00 53 1001.3
20260904081515 64 202 0.0 0.0 0.00 0.00 0.00 52 1001.3
20260904081011 64 202 0.0 0.0 0.00 0.00 0.00 53 1001.3
20260904080511 64 202 0.0 0.0 0.00 0.00 0.00 53 1001.1
20260904080011 64 201 0.0 0.0 0.00 0.00 0.00 52 1001.1
20260904075510 64 201 0.0 1.0 0.00 0.00 0.00 52 1001.1
20260904075011 64 232 0.0 0.0 0.00 0.00 0.00 52 1001.1
20260904074521 64 232 0.0 0.0 0.00 0.00 0.00 52 1001.2
20260904074008 64 232 0.0 0.0 0.00 0.00 0.00 52 1001.2
20260904073513 64 232 0.0 0.0 0.00 0.00 0.00 52 1001.3
20260904073008 64 232 0.0 0.0 0.00 0.00 0.00 52 1001.2
20260904072508 64 233 0.0 0.0 0.00 0.00 0.00 51 1001.4
20260904072006 64 233 0.0 0.0 0.00 0.00 0.00 51 1001.5
20260904071506 64 233 0.0 0.0 0.00 0.00 0.00 52 1001.7
20260904071008 64 233 0.0 0.0 0.00 0.00 0.00 50 1001.7
20260904070505 64 233 0.0 0.0 0.00 0.00 0.00 50 1001.7
20260904070004 64 233 0.0 0.0 0.00 0.00 0.00 50 1001.7
20260904065502 65 236 0.0 0.0 0.00 0.00 0.00 49 1001.6
20260904065001 65 236 0.0 0.0 0.00 0.00 0.00 49 1001.7
20260904064620 66 236 0.0 0.0 0.00 0.00 0.00 48 1001.7
20260904064102 66 236 0.0 0.0 0.00 0.00 0.00 47 1001.7
20260904063557 67 236 0.0 0.0 0.00 0.00 0.00 46 1001.7
20260904063057 68 236 0.0 0.0 0.00 0.00 0.00 45 1001.7
20260904062559 69 236 0.0 0.0 0.00 0.00 0.00 44 1001.7
20260904062052 69 236 0.0 0.0 0.00 0.00 0.00 43 1001.7
20260904061553 70 236 0.0 0.0 0.00 0.00 0.00 42 1001.8
20260904061053 71 236 0.0 0.0 0.00 0.00 0.00 41 1001.8